DW6062 Weather Reports


time (UTC)temp
C
wind
direction
speed
KPH
gust
KPH
rain 1hr
cm
rain 24hr
cm
rain mn
cm
humidity
%
barometer
mb
20260508050111 8 208 1.6 3.2 0.00 0.00 0.00 67 1014.2
20260508045611 8 197 0.0 0.0 0.00 0.00 0.00 68 1014.1
20260508044611 8 194 0.0 0.0 0.00 0.00 0.00 66 1013.8
20260508044111 8 192 0.0 0.0 0.00 0.00 0.00 67 1013.9
20260508043611 8 183 0.0 0.0 0.00 0.00 0.00 67 1013.7
20260508043111 8 178 0.0 0.0 0.00 0.00 0.00 67 1013.9
20260508042611 8 188 0.0 0.0 0.00 0.00 0.00 67 1013.9
20260508041611 8 171 0.0 0.0 0.00 0.00 0.00 67 1013.7
20260508041111 8 190 0.0 0.0 0.00 0.00 0.00 67 1013.8
20260508040611 8 192 0.0 0.0 0.00 0.00 0.00 67 1013.9
20260508040112 8 168 0.0 0.0 0.00 0.00 0.00 67 1013.7
20260508035612 8 186 0.0 0.0 0.00 0.00 0.00 66 1014.0
20260508035111 8 187 0.0 0.0 0.00 0.00 0.00 65 1013.8
20260508034611 8 187 0.0 0.0 0.00 0.00 0.00 65 1013.9
20260508034111 8 193 0.0 0.0 0.00 0.00 0.00 64 1013.8
20260508033611 8 200 0.0 0.0 0.00 0.00 0.00 64 1014.0
20260508033111 8 189 0.0 0.0 0.00 0.00 0.00 63 1014.1
20260508032611 8 202 0.0 0.0 0.00 0.00 0.00 63 1013.9
20260508032111 8 213 0.0 0.0 0.00 0.00 0.00 63 1014.1
20260508031611 8 199 0.0 0.0 0.00 0.00 0.00 63 1014.1
20260508031111 8 200 0.0 0.0 0.00 0.00 0.00 62 1014.4
20260508030111 9 201 0.0 1.6 0.00 0.00 0.00 62 1014.4
20260508025611 9 209 1.6 1.6 0.00 0.00 0.00 62 1014.2
20260508025111 9 210 0.0 0.0 0.00 0.00 0.00 60 1014.3
20260508023611 9 195 1.6 4.8 0.00 0.00 0.00 58 1014.4
20260508023111 10 217 1.6 4.8 0.00 0.00 0.00 58 1014.4
20260508021611 10 208 3.2 4.8 0.00 0.00 0.00 58 1014.3
20260508021111 10 229 3.2 9.7 0.00 0.00 0.00 58 1014.1
20260508020611 10 207 1.6 4.8 0.00 0.00 0.00 57 1014.0
20260508020111 10 204 3.2 4.8 0.00 0.00 0.00 57 1014.0
20260508015610 10 185 1.6 11.3 0.00 0.00 0.00 56 1014.3
20260508015111 10 233 4.8 11.3 0.00 0.00 0.00 57 1014.1
20260508014111 10 198 1.6 8.0 0.00 0.00 0.00 54 1014.0
20260508013611 10 206 3.2 8.0 0.00 0.00 0.00 53 1014.2
20260508012611 10 239 3.2 12.9 0.00 0.00 0.00 52 1014.0
20260508012111 10 215 1.6 3.2 0.00 0.00 0.00 51 1013.7
20260508011111 10 190 3.2 4.8 0.00 0.00 0.00 51 1013.9
20260508010610 10 211 3.2 12.9 0.00 0.00 0.00 53 1013.7
20260508010111 10 199 0.0 3.2 0.00 0.00 0.00 55 1013.6
20260508004611 10 209 1.6 3.2 0.00 0.00 0.00 53 1013.5
20260508004110 10 204 1.6 1.6 0.00 0.00 0.00 52 1013.3
20260508003611 10 216 0.0 1.6 0.00 0.00 0.00 52 1013.3
20260508003110 10 218 1.6 3.2 0.00 0.00 0.00 52 1013.1
20260508001110 10 202 1.6 1.6 0.00 0.00 0.00 50 1013.3
20260508000610 10 197 1.6 1.6 0.00 0.00 0.00 50 1013.3
20260508000110 11 195 0.0 0.0 0.00 0.00 0.00 49 1013.1
20260507235111 11 250 1.6 1.6 0.00 0.00 0.00 47 1012.9
20260507234610 11 222 1.6 1.6 0.00 0.00 0.00 45 1013.0
20260507234111 11 197 1.6 3.2 0.00 0.00 0.00 45 1012.9
20260507233611 11 178 0.0 4.8 0.00 0.00 0.00 45 1013.0
20260507232612 11 176 1.6 8.0 0.00 0.00 0.00 43 1012.9
20260507232111 11 192 1.6 4.8 0.00 0.00 0.00 44 1012.9
20260507231611 11 233 1.6 9.7 0.00 0.00 0.00 45 1013.1
20260507231111 12 212 3.2 12.9 0.00 0.00 0.00 44 1013.2
20260507230611 12 150 3.2 12.9 0.00 0.00 0.00 43 1013.0
20260507230112 12 203 1.6 4.8 0.00 0.00 0.00 42 1013.0
20260507225111 12 14 4.8 12.9 0.00 0.00 0.00 42 1012.8
20260507224611 13 37 3.2 12.9 0.00 0.00 0.00 41 1013.2
20260507224111 12 81 4.8 8.0 0.00 0.00 0.00 42 1013.3
20260507223611 12 72 3.2 9.7 0.00 0.00 0.00 43 1013.2
20260507222611 12 157 3.2 14.5 0.00 0.00 0.00 43 1013.2
20260507222111 12 128 8.0 14.5 0.00 0.00 0.00 43 1013.2
20260507221611 13 166 1.6 12.9 0.00 0.00 0.00 42 1013.3
20260507221111 12 45 6.4 11.3 0.00 0.00 0.00 42 1013.0
20260507220611 12 38 3.2 14.5 0.00 0.00 0.00 45 1013.2
20260507215611 12 87 1.6 16.1 0.00 0.00 0.00 44 1013.1
20260507215111 12 357 8.0 16.1 0.00 0.00 0.00 43 1013.0
20260507214611 12 201 3.2 4.8 0.00 0.00 0.00 45 1013.0
20260507214111 12 201 3.2 19.3 0.00 0.00 0.00 46 1013.0
20260507213611 12 76 8.0 11.3 0.00 0.00 0.00 42 1013.0
20260507212611 13 296 8.0 12.9 0.00 0.00 0.00 40 1013.1
20260507212111 13 13 4.8 11.3 0.00 0.00 0.00 43 1012.8
20260507211111 13 189 1.6 9.7 0.00 0.00 0.00 42 1012.9
20260507210611 12 229 3.2 9.7 0.00 0.00 0.00 45 1013.1
20260507210111 12 239 6.4 12.9 0.00 0.00 0.00 43 1013.2
20260507205611 13 25 3.2 12.9 0.00 0.00 0.00 42 1012.9
20260507205111 13 166 8.0 12.9 0.00 0.00 0.00 42 1012.9
20260507204611 13 251 6.4 19.3 0.00 0.00 0.00 43 1013.0
20260507204111 12 192 1.6 16.1 0.00 0.00 0.00 42 1013.1
20260507203611 13 218 4.8 8.0 0.00 0.00 0.00 42 1013.0
20260507202611 13 216 3.2 8.0 0.00 0.00 0.00 40 1012.9
20260507202111 13 43 8.0 16.1 0.00 0.00 0.00 41 1013.0
20260507201611 13 116 4.8 11.3 0.00 0.00 0.00 44 1012.7
20260507201111 13 265 8.0 12.9 0.00 0.00 0.00 45 1012.9
20260507200611 13 188 6.4 14.5 0.00 0.00 0.00 45 1012.7
20260507200111 13 219 9.7 19.3 0.00 0.00 0.00 44 1012.9
20260507195611 13 263 4.8 12.9 0.00 0.00 0.00 44 1013.0
20260507195111 12 173 3.2 12.9 0.00 0.00 0.00 49 1013.3
20260507194611 12 20 9.7 27.4 0.00 0.00 0.00 46 1013.3
20260507194111 12 222 8.0 24.1 0.00 0.00 0.00 46 1013.2
20260507193111 12 291 4.8 9.7 0.00 0.00 0.00 48 1013.3
20260507192612 12 239 4.8 14.5 0.00 0.00 0.00 48 1013.2
20260507192111 12 240 4.8 14.5 0.00 0.00 0.00 50 1013.4
20260507191611 12 237 4.8 14.5 0.00 0.00 0.00 48 1013.3
20260507191111 13 232 3.2 14.5 0.00 0.00 0.00 48 1013.4
20260507190611 13 130 3.2 12.9 0.00 0.00 0.00 48 1013.5
20260507190111 12 244 4.8 12.9 0.00 0.00 0.00 50 1013.2
20260507185111 11 204 4.8 11.3 0.00 0.00 0.00 51 1013.3
20260507184611 12 345 4.8 12.9 0.00 0.00 0.00 53 1013.5
20260507184111 13 87 3.2 11.3 0.00 0.00 0.00 49 1013.4
20260507183611 12 273 4.8 11.3 0.00 0.00 0.00 50 1013.4
20260507183111 11 348 9.7 16.1 0.00 0.00 0.00 53 1013.6
20260507182111 11 236 3.2 9.7 0.00 0.00 0.00 55 1013.6
20260507181611 12 216 4.8 16.1 0.00 0.00 0.00 54 1013.5
20260507181111 12 275 4.8 16.1 0.00 0.00 0.00 52 1013.4
20260507180611 12 291 4.8 11.3 0.00 0.00 0.00 51 1013.5
20260507175612 11 201 4.8 12.9 0.00 0.00 0.00 54 1013.7
20260507175112 11 227 6.4 11.3 0.00 0.00 0.00 54 1013.7
20260507174612 12 160 6.4 14.5 0.00 0.00 0.00 52 1013.5
20260507174112 12 350 8.0 12.9 0.00 0.00 0.00 52 1013.6
20260507173612 11 179 4.8 11.3 0.00 0.00 0.00 52 1013.7
20260507173112 11 213 8.0 14.5 0.00 0.00 0.00 51 1013.8
20260507172612 11 337 4.8 16.1 0.00 0.00 0.00 51 1013.9
20260507171612 11 275 6.4 19.3 0.00 0.00 0.00 51 1013.8
20260507170612 12 346 4.8 9.7 0.00 0.00 0.00 47 1013.8
20260507170112 12 354 4.8 12.9 0.00 0.00 0.00 50 1013.9
20260507165611 11 322 4.8 24.1 0.00 0.00 0.00 52 1013.8
20260507165113 11 209 8.0 16.1 0.00 0.00 0.00 52 1013.9
20260507164612 12 216 3.2 12.9 0.00 0.00 0.00 50 1014.0
20260507164112 11 247 4.8 11.3 0.00 0.00 0.00 50 1014.0
20260507163612 12 305 3.2 12.9 0.00 0.00 0.00 49 1013.9
20260507162612 11 191 8.0 16.1 0.00 0.00 0.00 53 1014.2
20260507160112 11 353 4.8 9.7 0.00 0.03 0.00 51 1014.0
20260507155112 11 218 4.8 14.5 0.00 0.03 0.00 50 1013.8
20260507154612 11 234 6.4 14.5 0.00 0.05 0.00 53 1013.8
20260507154111 11 239 9.7 12.9 0.00 0.05 0.00 53 1014.0
20260507153112 11 50 8.0 12.9 0.00 0.05 0.00 56 1013.9
20260507152612 11 206 3.2 9.7 0.00 0.05 0.00 56 1013.8
20260507152112 11 143 4.8 11.3 0.00 0.05 0.00 56 1013.9
20260507151612 11 336 4.8 11.3 0.00 0.05 0.00 57 1013.6
20260507151112 11 226 4.8 9.7 0.00 0.08 0.00 58 1013.8
20260507150612 10 120 8.0 12.9 0.00 0.10 0.00 59 1013.9
20260507150112 10 199 4.8 9.7 0.00 0.10 0.00 59 1013.9
20260507145611 10 233 3.2 8.0 0.00 0.13 0.00 59 1013.9
20260507144612 10 338 3.2 11.3 0.00 0.18 0.00 61 1013.8
20260507144112 10 190 3.2 12.9 0.00 0.18 0.00 63 1014.0
20260507143612 10 237 4.8 11.3 0.00 0.20 0.00 64 1014.0
20260507142112 9 195 6.4 14.5 0.00 0.20 0.00 64 1014.0
20260507141611 9 215 3.2 4.8 0.00 0.23 0.00 65 1013.9
20260507141112 8 218 3.2 9.7 0.00 0.25 0.00 66 1013.9
20260507140112 8 164 4.8 9.7 0.00 0.28 0.00 67 1014.0
20260507135612 8 227 8.0 14.5 0.00 0.33 0.00 68 1014.2
20260507134612 7 183 3.2 9.7 0.00 0.41 0.00 69 1014.2
20260507134112 7 209 1.6 9.7 0.00 0.43 0.00 69 1014.1
20260507133112 7 217 4.8 8.0 0.00 0.51 0.00 71 1014.2
20260507132612 7 230 3.2 9.7 0.00 0.58 0.00 72 1014.2
20260507132111 7 185 1.6 9.7 0.00 0.64 0.00 71 1014.2
20260507131612 7 230 4.8 8.0 0.00 0.66 0.00 72 1014.2
20260507131112 6 242 3.2 9.7 0.00 0.71 0.00 72 1014.2
20260507130611 6 219 3.2 11.3 0.00 0.74 0.00 73 1014.4
20260507130112 6 210 3.2 11.3 0.00 0.76 0.00 73 1014.2
20260507125612 6 191 1.6 8.0 0.00 0.79 0.00 73 1014.4
20260507125112 6 228 3.2 4.8 0.00 0.81 0.00 74 1014.3
20260507124112 6 197 4.8 9.7 0.00 0.89 0.00 74 1014.1
20260507123612 6 223 3.2 9.7 0.00 0.97 0.00 74 1014.2
20260507123112 6 214 3.2 9.7 0.00 1.02 0.00 75 1014.1
20260507122611 6 239 4.8 11.3 0.00 1.09 0.00 74 1014.2
20260507122112 6 243 4.8 12.9 0.00 1.17 0.00 75 1014.3
20260507121612 6 222 4.8 11.3 0.00 1.24 0.00 75 1014.2
20260507121112 5 199 1.6 3.2 0.00 1.32 0.00 76 1014.2
20260507120612 5 199 3.2 4.8 0.00 1.37 0.00 76 1014.3
20260507120111 5 209 3.2 4.8 0.00 1.45 0.00 76 1014.2
20260507115611 5 188 1.6 4.8 0.00 1.47 0.00 76 1014.1
20260507115112 5 196 3.2 11.3 0.00 1.55 0.00 77 1014.1
20260507114612 5 257 8.0 11.3 0.00 1.55 0.00 77 1014.0
20260507114111 5 212 1.6 8.0 0.00 1.57 0.00 78 1014.1
20260507113611 5 223 3.2 8.0 0.00 1.57 0.00 79 1014.0
20260507113111 4 213 1.6 3.2 0.00 1.57 0.00 80 1014.1
20260507112612 4 209 1.6 4.8 0.00 1.57 0.00 80 1013.8
20260507111612 4 221 3.2 4.8 0.00 1.60 0.00 80 1013.8
20260507111112 4 225 1.6 3.2 0.00 1.63 0.00 80 1013.8
20260507110611 4 193 1.6 4.8 0.00 1.63 0.00 81 1013.7
20260507110112 4 172 1.6 4.8 0.00 1.65 0.00 81 1014.0
20260507105612 4 236 4.8 8.0 0.00 1.68 0.00 81 1013.7
20260507105112 4 194 1.6 4.8 0.00 1.68 0.00 81 1013.8
20260507104611 4 183 3.2 3.2 0.00 1.70 0.00 81 1013.6
20260507104111 4 203 1.6 3.2 0.00 1.73 0.00 81 1013.5
20260507103612 4 217 1.6 3.2 0.00 1.75 0.00 81 1013.6
20260507103112 4 173 1.6 3.2 0.00 1.75 0.00 81 1013.6
20260507102612 4 201 1.6 3.2 0.00 1.78 0.00 81 1013.6
20260507102112 4 208 1.6 3.2 0.00 1.80 0.00 81 1013.3
20260507101611 4 205 0.0 3.2 0.00 1.83 0.00 81 1013.4
20260507101111 4 204 1.6 3.2 0.00 1.83 0.00 81 1013.3
20260507100612 4 200 1.6 3.2 0.00 1.88 0.00 81 1013.4
20260507100112 4 219 0.0 3.2 0.00 1.91 0.00 81 1013.3
20260507095612 4 201 1.6 3.2 0.00 1.91 0.00 81 1013.4
20260507095112 4 197 1.6 3.2 0.00 1.93 0.00 81 1013.1
20260507094612 5 209 3.2 3.2 0.00 1.98 0.00 81 1013.3